If you wish to contribute or participate in the discussions about articles you are invited to join SKYbrary as a registered user

 Actions

Minami-Daito Airport

From SKYbrary Wiki

ROMD
Airport
ICAO: ROMD – IATA: MMD
Summary
Name Minami-Daito Airport
Region Asia and Pacific
Territory Japan JP.gif
Location Minamidaito, Okinawa Prefecture
Serving Minamidaito
Elevation 48.463 m
159 ft48.463 m
Coordinates 25° 50' 45.60" N, 131° 15' 55.51" E
Runways
Designator Length Width Surface ROPS
2/20 1500 m4,921.26 ft
45 m147.638 ft
ASP /


METAR
Observation ROMD 212000Z AUTO 04004KT 9999 BKN042 BKN047 OVC049 25/21 Q1009
Station Minamidaitojima
Date/Time 21 October 2019 20:00:00
Wind direction 40°
Wind speed 04 kts
Lowest cloud amount broken clouds
Temperature 25°C
Dew point 21°C
Humidity 78%
QNH 1009 hPa
Weather condition n/a

Minamidaito Airport is an airport in Minamidaitō, Shimajiri District, Okinawa Prefecture, Japan.

Climatology

Humid Sub-tropical climate (Köppen climate classification Cfa)

Maps

Terrain

Loading map...

Airport Layout

Loading map...


Accidents & Serious Incidents at or in vicinity of ROMD

None on SKYbrary